星链-2022 (STARLINK-2022 )

导读 | 星芒AI

STARLINK-2022 是 SpaceX 公司 Starlink 项目的一部分,旨在通过发射大量低轨卫星,构建全球宽带互联网网络。该批次卫星于2022年陆续发射,采用先进推进和激光通信技术,提升网络速度与稳定性。Starlink 致力于为全球用户提供高速、低延迟的互联网服务,特别是在偏远和网络覆盖不足地区。该项目也具备军事与应急通信潜力,具有重要战略意义。

基本信息
目录编号:
47643
目录名称:
STARLINK-2022
国际标识:
2021-012Z
轨道中心:
EARTH
卫星名称:
星链-2022
卫星全名:
星链-2022 (STARLINK-2022 )
卫星状态:
在轨 (已飞行1764 天)
发射日期:
2021-02-16 UTC
国别 :
美国 (US)
星等 :
--
轨道信息
数据来源 国际轨道数据
星历时间: 2025-12-15T20:22:20+0800
1天前
查看轨道信息
半长轴: 6788.13km
偏心率: 0.0005579
轨道倾角: 53.027°
近地点辐角 314.666°
升交点赤经 34.224°
平近点角 45.390°
近地点: 406.207km
远地点: 413.783km
周期: 92.765分钟
每日圈数: 15.52307
详细信息
固有亮度:
5
最大亮度:
2.5
卫星平台:
Starlink V1.0
覆盖范围:
全球
运营商:
太空探索技术公司
运营商所在国:
美国
制造商(研发单位):
太空探索技术公司
制造商所在国:
美国
使用方式:
暂无
卫星简介
星链(Starlink)计划是由太空探索技术公司(SpaceX)提出的一个巨型低轨卫星互联网星座项目,计划在2019年至2024年间在太空搭建由约1.2万颗卫星组成的“星链”网络,其中1584颗将部署在地球上空550千米处的近地轨道,并从2020年开始工作。该卫星仍在工作。
2D轨道图
3D轨道图
轨道高度分析图
轨道倾角分析图
轨道综合分析图
查看轨道综合分析图